Lakehurst, NJ

1:34 PM EST on February 10, 2016 (GMT -0500)
Lakehurst Naes

Weather History for KNEL - December, 2012

Change the Weather History Date:

Sunday, December 23, 2012

  Actual Average Record
Temperature  
Mean Temperature 34 °F -  
Max Temperature 23 °F 40 °F 59 °F (2004)
Min Temperature 26 °F 30 °F 20 °F (1998)
Degree Days  
Heating Degree Days 30    
Moisture  
Dew Point 22 °F    
Average Humidity 61    
Maximum Humidity 81    
Minimum Humidity 38    
Precipitation  
Precipitation 0.00 in - - ()
Sea Level Pressure  
Sea Level Pressure 29.94 in    
Wind  
Wind Speed 10 mph (WSW)    
Max Wind Speed 15 mph    
Max Gust Speed 20 mph    
Averages and records for this station are not official NWS values.
T = Trace of Precipitation, MM = Missing Value Source: NWS Daily Summary

Daily Weather History Graph

Daily Weather History Graph

Search for Another Location

Airport or City:

Trip Planner

Search our weather history database for the weather conditions in past years. The results will help you decide how hot, cold, wet, or windy it might be!

Date:

Astronomy

Dec. 23, 2012 Rise Set
Actual Time 7:16 AM EST 4:36 PM EST
Civil Twilight 6:46 AM EST 5:07 PM EST
Nautical Twilight 6:12 AM EST 5:41 PM EST
Astronomical Twilight 5:39 AM EST 6:14 PM EST
Moon 1:25 PM EST (12/23) 2:57 AM EST (12/23)
Length of Visible Light 10h 20m
Length of Day
9h 19m
Waxing Gibbous, 81% of the Moon is Illuminated
Dec 23
Waxing Gibbous
Dec 28
Full
Jan 4
Last Quarter
Jan 11
New
Jan 18
First Quarter

Hourly Weather History & Observations

Time (EST) Temp. Windchill Dew Point Humidity Pressure Visibility Wind Dir Wind Speed Gust Speed Precip Events Conditions
12:00 AM 35.1 °F 26.9 °F 21.9 °F 59% 29.88 in - West 11.5 mph - N/A   Mostly Cloudy
1:00 AM 36.0 °F 28.0 °F 23.0 °F 59% 29.90 in - West 11.5 mph - N/A   Overcast
2:22 AM - - - N/A% - - North - - N/A   Unknown
3:00 AM 36.0 °F 27.5 °F 23.0 °F 59% 29.94 in - West 12.7 mph - N/A   Overcast
4:00 AM 35.1 °F 25.9 °F 23.0 °F 61% 29.94 in - West 13.8 mph 18.4 mph N/A   Overcast
5:00 AM 33.1 °F 25.5 °F 23.0 °F 66% 29.95 in - West 9.2 mph - N/A   Scattered Clouds
6:00 AM 32.0 °F 23.6 °F 21.9 °F 66% 29.96 in - West 10.4 mph - N/A   Scattered Clouds
7:00 AM 30.9 °F 23.5 °F 21.9 °F 69% 29.99 in - WSW 8.1 mph - N/A   Clear
8:00 AM 30.9 °F 23.5 °F 23.0 °F 72% 29.99 in - West 8.1 mph - N/A   Clear
9:00 AM 33.1 °F 25.5 °F 23.0 °F 66% 30.00 in - West 9.2 mph - N/A   Clear
10:00 AM 36.0 °F 28.0 °F 23.0 °F 59% 30.00 in - WSW 11.5 mph - N/A   Clear
11:00 AM 39.0 °F 31.4 °F 23.0 °F 53% 29.97 in - West 12.7 mph 19.6 mph N/A   Clear
12:00 PM 39.9 °F 32.9 °F 21.9 °F 49% 29.93 in - West 11.5 mph - N/A   Clear
1:00 PM 41.0 °F 33.1 °F 19.9 °F 43% 29.91 in - West 15.0 mph - N/A   Clear
3:00 PM 42.1 °F 35.2 °F 18.0 °F 38% 29.88 in - West 12.7 mph - N/A   Clear
4:00 PM 41.0 °F 36.4 °F 19.0 °F 41% 29.88 in - WSW 6.9 mph - N/A   Clear
5:00 PM 35.1 °F 32.2 °F 21.0 °F 57% 29.91 in - SSW 3.5 mph - N/A   Clear
6:00 PM 32.0 °F - 21.0 °F 64% 29.91 in - Calm Calm - N/A   Clear
7:00 PM 28.0 °F - 21.0 °F 75% 29.93 in - Calm Calm - N/A   Clear
8:00 PM 28.0 °F - 21.0 °F 75% 29.93 in - Calm Calm - N/A   Clear
9:00 PM 27.0 °F 23.0 °F 21.9 °F 81% 29.94 in - South 3.5 mph - N/A   Clear
10:00 PM 26.1 °F - 19.9 °F 78% 29.94 in - Calm Calm - N/A   Clear